sat.trackr.live / text

‹ back to catalog

SYRACUSE 4A

NORAD 49333 · 2021-095B

PAYLOAD ACTIVE UNKNOWN

§ Identity

Operator
Country
FR
Launch date
2021-10-24
Launch site
FRGUI
Launch vehicle
Mass (kg)
RCS (m²)

Purposes: comms

External: N2YO · Heavens-Above · Gunter

§ Orbital elements

Epoch: 2026-09-20T00:01:48.207360Z

Period
1,436.05 min
Inclination
0.0166°
Eccentricity
0.0001788
Mean motion
1.00274721 rev/d
Perigee alt
35,778.2 km
Apogee alt
35,793.3 km
Semi-major
42,163.9 km
B*
0.0000e+0
RAAN
216.8775°
Arg perigee
310.7763°
Mean anomaly
237.2230°
Rev number
1,889

§ Raw data

SYRACUSE 4A1 49333U 21095B   26263.00125240  .00000130  00000+0  00000+0 0  99942 49333   0.0166 216.8775 0001788 310.7763 237.2230  1.00274721 18893

JSON: /api/v1/satellites/49333 · /tle

For live sub-satellite position, see the globe view (requires WebGL).

§ Visibility from observer

Set your observer location to see the next 7 days of passes ≥ 10°. The values pass through the URL so the page stays shareable.

No JS? Fill the form by hand. The geolocation button needs JavaScript.